Power by www.initrio-led.comwww.initrio-led.comwww.initrio-led.comwww.initrio-led.comwww.initrio-led.com

HONDA HRV CLUB - ศูนย์กลางสถิติ

สถิติทั่วไป

จำนวนสมาชิกทั้งหมด:
484
จำนวนตอบกระทู้ทั้งหมด:
198523
จำนวนหัวข้อทั้งหมด:
168543
จำนวนหมวดหมู่ทั้งหมด:
14
ผู้ใช้งานที่ออนไลน์:
70
ออนไลน์มากที่สุด:
263 - 1 พ.ย. 2017, 08:38:26 น.
ออนไลน์วันนี้:
130
เพจวิวทั้งหมด:
5128510
สมาชิกเฉลี่ยต่อวัน:
0.93
ตอบกระทู้เฉลี่ยต่อวัน:
174.03
หัวข้อเฉลี่ยต่อวัน:
146.83
จำนวนบอร์ดทั้งหมด:
30
สมาชิกล่าสุด:
atsaphonxyz
ออนไลน์เฉลี่ยต่อวัน:
50.98
อัตราส่วนระหว่างชายกับหญิง:
2.3:1
เฉลี่ยเพจวิวต่อวัน:
4467.34

หัวข้อยอดนิยม 10 หัวข้อแรก (ผู้ตอบสูงสุด)

[[ ขาย ]] จำหน่ายถาดท้ายรถยนต์ HONDA HRV และผ้ายางเข้ารูป ราคาโรงงาน !!!!!!
1591
[รับซื้อรถมือสอง]ราคาสูงที่สุด ทุกรุ่นทุกยี่ห้อ คุยง่ายพร้อมบริการถึงที่ครับ
944
!!!! แรงสุดทั่วราชอาณาจักร ดูแคมเปญสุดเล้าใจพร้อมดาวน์โหลดโปรชัวร์ได้ที่นี้ !!!!
638
!!! รับซื้อ รถ สด แรง เร็ว IN AND OUT car ซื้อทุกรุ่น ทุกยี่ห้อ พร้อมโปรโมชั่นรถ
618
สีแต้มรถ HONDA HRV ขวดละ 170.- (imixpaint) และอุปกรณ์งานแต้มสีรถ
550
พรมปูพื้นรถยนต์เข้ารูป ผ้ายางปูพื้นรถ ถาดท้าย พรม5D คิ้วกันสาดเข้ารูปเพียง600-!!
460
ขายผ้าคลุมรถHRV กันน้ำ กันแดดคุณภาพเยี่ยม [รับสั่งตัดงานพิเศษ ทุกแบบ] พร้อมส่ง
444
"พรมกระดุม พรมดักฝุ่น สูตรดั้งเดิม ทนมากกกก Mr.CARPET"
432
ล้อป้ายแดง Hrv 17 พร้อมยาง
432
__เครื่องชาร์จแบตเตอรี่อัจฉริยะ NOCO GENIUS จาก USA ดีที่สุด/ถูกที่สุด ประกัน5ปี
391

หัวข้อยอดนิยม 10 หัวข้อแรก (ผู้อ่านสูงสุด)

[[ ขาย ]] จำหน่ายถาดท้ายรถยนต์ HONDA HRV และผ้ายางเข้ารูป ราคาโรงงาน !!!!!!
30395
พรมปูพื้นรถยนต์เข้ารูป ผ้ายางปูพื้นรถ ถาดท้าย พรม5D คิ้วกันสาดเข้ารูปเพียง600-!!
12938
ของแต่ง HR-V มาแว้ว คลิกเลย!!!!!!!!!!!!!! ราคากันเอง ฟรีติดตั้ัง
12451
ล้อ ยาง max ใหม่หรือป้ายแดง HONDA HRV หลายชุด ขายถูก ติดตั้งหรือส่งทั่วไทยคร้าบ
9513
[รับซื้อรถมือสอง]ราคาสูงที่สุด ทุกรุ่นทุกยี่ห้อ คุยง่ายพร้อมบริการถึงที่ครับ
9305
!!!! แรงสุดทั่วราชอาณาจักร ดูแคมเปญสุดเล้าใจพร้อมดาวน์โหลดโปรชัวร์ได้ที่นี้ !!!!
8543
"พรมกระดุม พรมดักฝุ่น สูตรดั้งเดิม ทนมากกกก Mr.CARPET"
8330
!!! รับซื้อ รถ สด แรง เร็ว IN AND OUT car ซื้อทุกรุ่น ทุกยี่ห้อ พร้อมโปรโมชั่นรถ
7559
ขายผ้าคลุมรถHRV กันน้ำ กันแดดคุณภาพเยี่ยม [รับสั่งตัดงานพิเศษ ทุกแบบ] พร้อมส่ง
7354
ล้างเเอร์รถยนต์ 500 บาท ซอยหลวงพ่อโต บางพลี พร้อมบริการ ซ่อมเเอร์ ขัดไฟหน้า เเบต
6437

เริ่มหัวข้อใหม่มากที่สุด

ออนไลน์นานที่สุด

montien
1วัน 10ชั่วโมง 47นาที
aircardok
1วัน 8ชั่วโมง 6นาที
้hairman
1วัน 5ชั่วโมง 36นาที
MEE-GUSTO
1วัน 37นาที
Teetawat
22ชั่วโมง 26นาที
salestray
19ชั่วโมง 48นาที
mr_carpet
17ชั่วโมง 56นาที
pengeng
16ชั่วโมง 55นาที
ostylegolfzz
15ชั่วโมง 50นาที
lekcar88
14ชั่วโมง 54นาที

รายละเอียดระบบย้อนหลัง

สรุปประจำเดือน หัวข้อใหม่ ตอบกระทู้ใหม่ สมาชิกใหม่ ออนไลน์มากที่สุด เพจวิว
* 2018 85240 98682 207 232 2575436
พฤษภาคม 2018 17832 20375 23 204 557921
เมษายน 2018 17848 20631 45 209 566747
มีนาคม 2018 18137 20841 54 198 528713
กุมภาพันธ์ 2018 15830 18384 36 232 442874
มกราคม 2018 15593 18451 49 200 479181
* 2017 83030 94959 188 263 2330439
ธันวาคม 2017 21075 23350 21 195 569151
พฤศจิกายน 2017 20293 22242 20 263 530288
ตุลาคม 2017 17994 19931 16 195 473501
กันยายน 2017 16631 18357 22 160 414879
สิงหาคม 2017 6944 7765 34 86 177610
กรกฎาคม 2017 20 472 20 24 11154
มิถุนายน 2017 13 489 10 21 19526
2017-06-01 1 27 0 16 1243
2017-06-02 1 17 0 13 194
2017-06-03 1 25 1 14 269
2017-06-04 0 24 1 13 267
2017-06-05 1 30 2 17 305
2017-06-06 0 13 0 19 184
2017-06-07 0 12 0 20 182
2017-06-08 0 13 0 18 193
2017-06-09 0 7 0 21 375
2017-06-10 1 25 0 19 361
2017-06-11 0 17 0 13 1182
2017-06-12 1 11 0 13 180
2017-06-13 0 14 0 19 190
2017-06-14 0 11 0 16 9807
2017-06-15 0 31 0 19 301
2017-06-16 0 12 0 13 206
2017-06-17 1 25 1 12 252
2017-06-18 0 7 0 12 129
2017-06-19 1 12 0 13 153
2017-06-20 1 15 0 15 228
2017-06-21 0 11 0 12 1120
2017-06-22 1 13 1 16 249
2017-06-23 0 8 1 14 323
2017-06-24 0 20 1 15 215
2017-06-25 0 21 0 16 356
2017-06-26 1 16 1 15 333
2017-06-27 0 13 1 19 185
2017-06-28 0 11 0 13 150
2017-06-29 1 13 0 15 182
2017-06-30 1 15 0 15 212
พฤษภาคม 2017 6 227 0 19 8523
เมษายน 2017 11 223 5 109 13439
2017-04-01 0 12 1 34 2116
2017-04-02 3 24 1 52 530
2017-04-03 0 20 0 41 505
2017-04-04 0 23 0 109 2241
2017-04-05 3 15 1 96 1097
2017-04-06 0 34 0 74 862
2017-04-07 2 22 2 69 1119
2017-04-08 2 14 0 62 944
2017-04-09 0 21 0 64 1792
2017-04-10 1 20 0 68 825
2017-04-11 0 18 0 60 538
2017-04-12 0 0 0 38 504
2017-04-13 0 0 0 39 312
2017-04-14 0 0 0 2 36
2017-04-15 0 0 0 0 15
2017-04-16 0 0 0 1 1
2017-04-17 0 0 0 1 1
2017-04-18 0 0 0 1 1
มีนาคม 2017 15 719 10 74 42902
กุมภาพันธ์ 2017 12 574 18 95 27236
มกราคม 2017 16 610 12 92 42230
* 2016 254 5653 534 175 198775
ธันวาคม 2016 7 629 6 56 19786
2016-12-01 0 15 0 56 917
2016-12-02 0 15 1 38 750
2016-12-03 0 20 0 38 466
2016-12-04 1 27 1 37 447
2016-12-05 0 30 0 50 778
2016-12-06 0 30 0 52 622
2016-12-07 0 15 1 44 543
2016-12-08 0 19 0 48 560
2016-12-09 0 14 0 50 912
2016-12-10 0 11 0 39 485
2016-12-11 0 16 0 42 637
2016-12-12 0 16 0 47 1544
2016-12-13 0 23 0 45 740
2016-12-14 0 29 1 45 631
2016-12-15 3 26 1 40 703
2016-12-16 1 30 0 24 441
2016-12-17 0 28 0 16 793
2016-12-18 0 32 0 15 550
2016-12-19 0 15 0 14 209
2016-12-20 0 18 0 15 426
2016-12-21 0 25 0 25 309
2016-12-22 0 29 0 20 497
2016-12-23 0 21 0 17 1309
2016-12-24 0 23 0 17 475
2016-12-25 0 30 1 53 345
2016-12-26 1 17 0 46 622
2016-12-27 0 19 0 49 649
2016-12-28 0 15 0 50 615
2016-12-29 0 12 0 42 650
2016-12-30 0 5 0 51 577
2016-12-31 1 4 0 52 584
พฤศจิกายน 2016 13 568 10 52 24760
ตุลาคม 2016 13 601 11 69 20621
กันยายน 2016 9 690 14 54 20567
2016-09-01 1 29 1 53 824
2016-09-02 0 23 0 39 595
2016-09-03 0 24 0 35 1595
2016-09-04 0 28 1 35 541
2016-09-05 0 29 1 49 572
2016-09-06 0 27 1 45 762
2016-09-07 0 25 0 17 417
2016-09-08 0 26 0 17 531
2016-09-09 0 23 0 28 652
2016-09-10 4 28 2 54 891
2016-09-11 0 18 0 39 827
2016-09-12 0 25 0 45 697
2016-09-13 0 25 0 41 1532
2016-09-14 0 35 0 39 717
2016-09-15 0 25 0 40 548
2016-09-16 1 28 1 42 697
2016-09-17 0 16 0 51 628
2016-09-18 0 15 0 30 492
2016-09-19 0 22 0 25 457
2016-09-20 0 23 0 24 418
2016-09-21 0 21 0 25 388
2016-09-22 0 20 0 26 399
2016-09-23 1 21 2 27 1382
2016-09-24 0 16 1 53 719
2016-09-25 0 20 1 51 596
2016-09-26 1 20 0 43 714
2016-09-27 0 20 0 46 473
2016-09-28 1 21 3 34 647
2016-09-29 0 19 0 39 419
2016-09-30 0 18 0 38 437
สิงหาคม 2016 48 673 21 50 21743
กรกฎาคม 2016 72 591 225 175 38662
มิถุนายน 2016 7 441 43 32 13927
พฤษภาคม 2016 65 449 46 26 11172
เมษายน 2016 5 264 48 19 7599
มีนาคม 2016 1 269 35 27 7042
กุมภาพันธ์ 2016 6 268 35 29 7327
มกราคม 2016 8 210 40 18 5569
* 2015 35 492 137 43 23860
ธันวาคม 2015 3 149 26 19 5083
พฤศจิกายน 2015 3 107 12 43 3970
2015-11-01 0 2 0 10 86
2015-11-02 1 2 1 11 166
2015-11-03 0 3 1 8 133
2015-11-04 0 4 1 13 141
2015-11-05 0 4 1 13 138
2015-11-06 0 3 1 10 104
2015-11-07 0 2 0 9 61
2015-11-08 0 5 0 8 136
2015-11-09 0 4 0 10 92
2015-11-10 0 2 0 9 62
2015-11-11 0 2 0 9 95
2015-11-12 0 2 0 10 103
2015-11-13 0 4 0 12 137
2015-11-14 0 3 0 11 127
2015-11-15 0 3 0 10 97
2015-11-16 0 4 0 10 115
2015-11-17 0 5 0 15 186
2015-11-18 0 5 1 14 130
2015-11-19 0 4 1 8 82
2015-11-20 0 3 0 43 686
2015-11-21 1 3 1 13 151
2015-11-22 0 4 0 11 100
2015-11-23 0 5 0 13 141
2015-11-24 0 4 1 10 150
2015-11-25 0 4 1 14 96
2015-11-26 1 5 0 8 81
2015-11-27 0 5 0 12 115
2015-11-28 0 4 1 10 86
2015-11-29 0 4 1 11 74
2015-11-30 0 3 0 12 99
ตุลาคม 2015 3 34 13 12 2397
กันยายน 2015 2 33 18 12 1923
2015-09-01 0 1 0 4 25
2015-09-02 0 1 1 4 38
2015-09-03 0 1 0 7 75
2015-09-04 0 1 0 5 36
2015-09-05 0 1 1 4 36
2015-09-06 0 2 0 8 70
2015-09-07 1 2 1 5 76
2015-09-08 0 1 2 3 63
2015-09-09 0 1 1 6 78
2015-09-10 0 1 0 5 42
2015-09-11 0 1 0 4 30
2015-09-12 0 1 1 4 71
2015-09-13 0 2 0 4 75
2015-09-14 0 1 0 6 47
2015-09-15 0 1 0 8 90
2015-09-16 1 2 3 6 103
2015-09-17 0 1 0 9 72
2015-09-18 0 1 0 6 40
2015-09-19 0 0 1 6 102
2015-09-20 0 1 0 9 86
2015-09-21 0 1 1 9 76
2015-09-22 0 1 1 7 72
2015-09-23 0 1 2 7 82
2015-09-24 0 1 0 8 61
2015-09-25 0 1 0 6 35
2015-09-26 0 0 1 12 90
2015-09-27 0 2 1 10 91
2015-09-28 0 1 1 6 54
2015-09-29 0 1 0 11 68
2015-09-30 0 1 0 4 39
สิงหาคม 2015 1 35 13 10 1436
2015-08-01 0 1 0 6 53
2015-08-02 0 2 0 6 54
2015-08-03 0 1 0 3 24
2015-08-04 0 1 0 7 53
2015-08-05 0 1 0 2 20
2015-08-06 0 1 0 5 33
2015-08-07 0 1 1 4 35
2015-08-08 0 1 0 4 50
2015-08-09 0 2 1 5 83
2015-08-10 0 1 1 3 44
2015-08-11 0 1 0 3 27
2015-08-12 0 0 1 4 19
2015-08-13 0 1 0 4 37
2015-08-14 0 1 0 4 34
2015-08-15 0 1 1 5 30
2015-08-16 0 2 0 4 47
2015-08-17 1 2 1 5 63
2015-08-18 0 1 1 5 59
2015-08-19 0 1 0 10 84
2015-08-20 0 1 1 5 74
2015-08-21 0 2 2 8 84
2015-08-22 0 1 2 4 60
2015-08-23 0 2 0 7 55
2015-08-24 0 1 0 5 40
2015-08-25 0 1 0 6 46
2015-08-26 0 1 0 5 44
2015-08-27 0 1 0 2 23
2015-08-28 0 0 0 7 40
2015-08-29 0 0 0 5 28
2015-08-30 0 2 1 7 50
2015-08-31 0 1 0 6 43
กรกฎาคม 2015 1 33 7 9 1695
มิถุนายน 2015 2 38 12 10 1943
พฤษภาคม 2015 1 30 21 10 1886
เมษายน 2015 19 33 15 12 3527

TOP